FW1340 Weather Reports


Display with metric or nautical units.
time (UTC)temp
F
wind
direction
speed
MPH
gust
MPH
rain 1hr
in
rain 24hr
in
rain mn
in
humidity
%
barometer
mb
20260906233010 84 248 0.0 0.0 0.00 0.00 0.00 33 1012.1
20260906231511 85 218 0.0 0.0 0.00 0.00 0.00 33 1012.1
20260906230008 85 236 0.0 0.0 0.00 0.00 0.00 33 1012.3
20260906224506 85 201 0.0 0.0 0.00 0.00 0.00 31 1012.5
20260906223010 84 244 0.0 0.0 0.00 0.00 0.00 31 1012.7
20260906221601 84 281 0.0 0.0 0.00 0.00 0.00 32 1012.9
20260906220135 84 273 0.0 0.0 0.00 0.00 0.00 32 1013.0
20260906214558 84 273 0.0 0.0 0.00 0.00 0.00 33 1013.1
20260906213059 83 306 0.0 0.0 0.00 0.00 0.00 31 1013.2
20260906211551 83 237 0.0 0.0 0.00 0.00 0.00 33 1013.3
20260906210105 82 284 0.0 0.0 0.00 0.00 0.00 36 1013.3
20260906204545 81 234 0.0 0.0 0.00 0.00 0.00 37 1013.4
20260906203040 80 284 0.0 0.0 0.00 0.00 0.00 37 1013.5
20260906201538 80 242 0.0 0.0 0.00 0.00 0.00 35 1013.6
20260906200045 80 240 0.0 0.0 0.00 0.00 0.00 37 1013.9
20260906194530 79 242 0.0 0.0 0.00 0.00 0.00 39 1014.0
20260906193029 78 220 0.0 0.0 0.00 0.00 0.00 39 1014.2
20260906191523 77 271 0.0 0.0 0.00 0.00 0.00 40 1014.3
20260906190020 76 271 0.0 0.0 0.00 0.00 0.00 44 1014.3
20260906184515 76 259 0.0 0.0 0.00 0.00 0.00 46 1014.4
20260906183025 75 250 0.0 0.0 0.00 0.00 0.00 48 1014.4
20260906181505 74 259 0.0 0.0 0.00 0.00 0.00 51 1014.5
20260906180001 72 242 0.0 0.0 0.00 0.00 0.00 52 1014.7
20260906174558 72 272 0.0 0.0 0.00 0.00 0.00 53 1014.7
20260906173053 71 273 0.0 0.0 0.00 0.00 0.00 55 1014.8
20260906171558 69 286 0.0 0.0 0.00 0.00 0.00 59 1014.7
20260906170052 69 263 0.0 0.0 0.00 0.00 0.00 59 1014.7
20260906164553 68 235 0.0 0.0 0.00 0.00 0.00 61 1014.8
20260906163047 67 257 0.0 0.0 0.00 0.00 0.00 63 1014.7
20260906161535 66 277 0.0 0.0 0.00 0.00 0.00 65 1014.9
20260906160044 65 270 0.0 0.0 0.00 0.00 0.00 68 1014.9
20260906154527 64 222 0.0 0.0 0.00 0.00 0.00 71 1014.8
20260906153022 62 275 0.0 0.0 0.00 0.00 0.00 75 1014.9
20260906151519 60 94 0.0 0.0 0.00 0.00 0.00 79 1014.8
20260906150038 57 72 0.0 0.0 0.00 0.00 0.00 83 1014.8
20260906144511 54 113 0.0 0.0 0.00 0.00 0.00 85 1014.8
20260906143017 52 98 0.0 0.0 0.00 0.00 0.00 85 1014.6
20260906141504 51 76 0.0 0.0 0.00 0.00 0.00 86 1014.3
20260906140109 50 74 0.0 0.0 0.00 0.00 0.00 86 1014.3
20260906134559 50 155 0.0 0.0 0.00 0.00 0.00 84 1014.2
20260906133054 51 130 0.0 0.0 0.00 0.00 0.00 82 1014.1
20260906131552 52 161 0.0 0.0 0.00 0.00 0.00 83 1014.0
20260906130052 52 278 0.0 0.0 0.00 0.00 0.00 84 1013.8
20260906124550 52 309 0.0 0.0 0.00 0.00 0.00 84 1013.8
20260906123047 52 309 0.0 0.0 0.00 0.00 0.00 84 1013.8
20260906121546 52 299 0.0 0.0 0.00 0.00 0.00 83 1013.8
20260906120049 53 299 0.0 0.0 0.00 0.00 0.00 80 1013.7
20260906114542 54 299 0.0 0.0 0.00 0.00 0.00 80 1013.6
20260906113039 54 299 0.0 0.0 0.00 0.00 0.00 81 1013.6
20260906111546 54 65 0.0 0.0 0.00 0.00 0.00 81 1013.5
20260906110042 54 65 0.0 0.0 0.00 0.00 0.00 79 1013.5
20260906104535 55 65 0.0 0.0 0.00 0.00 0.00 79 1013.4
20260906103033 55 53 0.0 0.0 0.00 0.00 0.00 78 1013.5
20260906101532 55 53 0.0 0.0 0.00 0.00 0.00 78 1013.4
20260906100030 55 53 0.0 0.0 0.00 0.00 0.00 78 1013.4
20260906094542 56 61 0.0 0.0 0.00 0.00 0.00 78 1013.5
20260906093029 56 61 0.0 0.0 0.00 0.00 0.00 78 1013.6
20260906091525 56 64 0.0 0.0 0.00 0.00 0.00 77 1013.7
20260906090027 56 172 0.0 0.0 0.00 0.00 0.00 76 1013.8
20260906084525 56 101 0.0 0.0 0.00 0.00 0.00 75 1013.8
20260906083020 57 88 0.0 0.0 0.00 0.00 0.00 75 1013.9
20260906081539 57 74 0.0 0.0 0.00 0.00 0.00 74 1013.9
20260906080018 57 74 0.0 0.0 0.00 0.00 0.00 73 1013.9
20260906074516 57 72 0.0 0.0 0.00 0.00 0.00 73 1013.9
20260906073012 59 45 0.0 0.0 0.00 0.00 0.00 70 1013.8
20260906071509 59 45 0.0 0.0 0.00 0.00 0.00 68 1013.8
20260906070005 60 306 0.0 0.0 0.00 0.00 0.00 68 1013.7
20260906064505 61 308 0.0 0.0 0.00 0.00 0.00 69 1013.7
20260906063007 62 260 0.0 0.0 0.00 0.00 0.00 65 1013.7
20260906061507 63 260 0.0 0.0 0.00 0.00 0.00 66 1013.6
20260906060004 63 261 0.0 0.0 0.00 0.00 0.00 65 1013.6
20260906054503 64 257 0.0 0.0 0.00 0.00 0.00 64 1013.6
20260906053002 64 269 0.0 0.0 0.00 0.00 0.00 64 1013.6
20260906051504 65 257 0.0 0.0 0.00 0.00 0.00 64 1013.8
20260906050002 66 257 0.0 0.0 0.00 0.00 0.00 61 1013.7
20260906044501 68 255 0.0 0.0 0.00 0.00 0.00 59 1013.7
20260906043102 68 268 0.0 0.0 0.00 0.00 0.00 57 1013.5
20260906041601 68 263 0.0 0.0 0.00 0.00 0.00 57 1013.3
20260906040132 70 278 0.0 0.0 0.00 0.00 0.00 57 1013.3
20260906034605 71 271 0.0 0.0 0.00 0.00 0.00 55 1013.2
20260906033059 71 267 0.0 0.0 0.00 0.00 0.00 55 1013.0
20260906031603 72 267 0.0 0.0 0.00 0.00 0.00 54 1012.8
20260906030058 73 259 0.0 0.0 0.00 0.00 0.00 51 1012.8
20260906024601 75 267 0.0 0.0 0.00 0.00 0.00 49 1012.6
20260906023057 76 227 0.0 0.0 0.00 0.00 0.00 49 1012.7
20260906021604 77 263 0.0 0.0 0.00 0.00 0.00 47 1012.7
20260906020059 78 277 0.0 0.0 0.00 0.00 0.00 43 1012.7
20260906014559 79 254 0.0 0.0 0.00 0.00 0.00 37 1012.7
20260906013055 80 286 0.0 0.0 0.00 0.00 0.00 36 1012.6
20260906011557 81 261 0.0 0.0 0.00 0.00 0.00 36 1012.7
20260906010104 83 252 0.0 0.0 0.00 0.00 0.00 36 1012.6
20260906004555 83 273 0.0 0.0 0.00 0.00 0.00 37 1012.6
20260906003052 83 298 0.0 0.0 0.00 0.00 0.00 35 1012.6
20260906001604 83 284 0.0 0.0 0.00 0.00 0.00 35 1012.5
20260906000051 83 274 0.0 0.0 0.00 0.00 0.00 35 1012.5
20260905234549 82 236 0.0 0.0 0.00 0.00 0.00 37 1012.6